Voltar ao catálogo

THOR BURNER 2A DEB

AtivoSSO
NORAD 28591·DEBRIS·🇺🇸 United States

Lançado Mar 16, 1974 de Vandenberg Space Force Base

Loading…

Próximas Passagens (próximas 24 horas)

TLE

AtualizadoSource: Space-Track

Época: Sep 14, 2026, 14:25 UTC

1 28591U 74015C   26257.60085829  .00000135  00000-0  80221-4 0  9998
2 28591  98.9427 167.9485 0045278 221.1087 258.8118 14.22447915122549

Acompanhe THOR BURNER 2A DEB em tempo real com AllMySat

Download on the App Store